Regional Weather Roundup
Issued by NWS

Home | Current Version | Previous Version | Graphics & Text | Print | Product List | Glossary On
Versions: 1 2 3 4 5 6 7 8 9 10 11 12 13 14 15 16 17 18 19 20 21 22 23 24 25 26 27 28 29 30 31 32 33 34 35 36 37 38 39 40 41 42 43 44 45 46 47 48 49 50
412
ASUS43 KOAX 221402
RWRNE

WEATHER ROUNDUP FOR NEBRASKA
NATIONAL WEATHER SERVICE OMAHA NE
900 AM CDT FRI MAY 22 2015

NOTES: SATELLITE DATA IS BEING USED TO AUGMENT CLOUD COVER ABOVE
       12000 FEET.
       "FAIR" INDICATES FEW OR NO CLOUDS BELOW 12,000 FEET WITH NO
       SIGNIFICANT WEATHER AND/OR OBSTRUCTIONS TO VISIBILITY.

  * THESE STATIONS DO NOT REPORT WEATHER SUCH AS RAIN...SNOW OR FOG.

NEZ001>004-019>022-054>056-221500-
NEBRASKA PANHANDLE

CITY           SKY/WX    TMP DP  RH WIND       PRES   REMARKS
SCOTTSBLUFF    CLOUDY    48  45  89 SE16      30.08R
ALLIANCE       CLOUDY    49  43  80 SE18      30.10R
CHADRON        CLOUDY    53  45  74 S13       30.09R
KIMBALL          N/A    N/A N/A N/A MISG        N/A
SIDNEY         LGT RAIN  46  45  96 SE13      30.10S
$$

NEZ057>060-069>072-079>082-221500-
SOUTHWEST NEBRASKA

CITY           SKY/WX    TMP DP  RH WIND       PRES   REMARKS
NORTH PLATTE   CLOUDY    47  43  86 E8        30.16S
IMPERIAL       RAIN      47  46  97 SE10      30.13R FOG
LEXINGTON      CLOUDY    51  46  85 SE8       30.19R
MCCOOK         RAIN      48  47  96 SE8       30.16R FOG
OGALLALA       DRIZZLE   47  46  93 SE8       30.14R
$$

NEZ005>010-023>029-035>040-094-221500-
NORTH CENTRAL NEBRASKA

CITY           SKY/WX    TMP DP  RH WIND       PRES   REMARKS
VALENTINE      PTSUNNY   54  43  66 CALM      30.17R
AINSWORTH      PTSUNNY   54  46  74 S6        30.18R
BROKEN BOW     CLOUDY    49  43  80 SE3       30.18S
O`NEILL        PTSUNNY   55  46  70 CALM      30.21R
ORD            CLOUDY    47  41  80 CALM      30.19S
$$

NEZ041-046>049-061>064-073>077-083>087-221500-
SOUTH CENTRAL NEBRASKA

CITY           SKY/WX    TMP DP  RH WIND       PRES   REMARKS
GRAND ISLAND   CLOUDY    51  46  83 E5        30.22R
AURORA         CLOUDY    51  47  88 SE5       30.23R
HASTINGS       CLOUDY    52  42  69 S7        30.21R
HEBRON         CLOUDY    52  47  85 CALM      30.24S
HOLDREGE       LGT RAIN  49  45  85 S8        30.20R
KEARNEY *      CLOUDY    52  45  76 SE8       30.20S
$$

NEZ011>018-030>034-042>045-221500-
NORTHEAST NEBRASKA

CITY           SKY/WX    TMP DP  RH WIND       PRES   REMARKS
NORFOLK        PTSUNNY   56  45  66 CALM      30.21R
ALBION         PTSUNNY   52  44  73 CALM      30.21S
BLAIR          PTSUNNY   58  44  59 CALM      30.22S
COLUMBUS *     CLOUDY    54  41  62 CALM      30.26R
FREMONT        PTSUNNY   57  44  62 CALM      30.23R
TEKAMAH        PTSUNNY   59  43  55 CALM      30.23R
WAYNE          PTSUNNY   57  44  62 CALM      30.22S
$$

NEZ050>053-065>068-078-088>093-221500-
SOUTHEAST NEBRASKA

CITY           SKY/WX    TMP DP  RH WIND       PRES   REMARKS
LINCOLN        CLOUDY    55  48  77 CALM      30.24R
OMAHA EPPLEY   CLOUDY    59  45  59 CALM      30.23R
BEATRICE       CLOUDY    53  47  79 SE3       30.25R
FALLS CITY     CLOUDY    54  48  80 CALM      30.25R
NEBRASKA CITY  CLOUDY    59  41  50 CALM      30.24R
$$

NEZ044-045-051>053-067-221500-
OMAHA AREA

CITY           SKY/WX    TMP DP  RH WIND       PRES   REMARKS
OMAHA EPPLEY   CLOUDY    59  45  59 CALM      30.23R
BLAIR          PTSUNNY   58  44  59 CALM      30.22S
FREMONT        PTSUNNY   57  44  62 CALM      30.23R
MILLARD        PTSUNNY   59  47  63 CALM      30.23R
OFFUTT AFB     PTSUNNY   58  47  66 S1        30.23R
WAHOO          FAIR      58  45  63 CALM      30.23R
$$



USA.gov is the U.S. government's official web portal to all federal, state and local government web resources and services.